Flag for United Kingdom Weather past 2 weeks in Cardiff, Wales, United Kingdom

Now
73 °F

Sunny.


Feels Like: 76 °F
Forecast: 61 / 78 °F
Wind: 14 mph from East

Location: Wales Airport

Current Time: Jul 24, 2014 at 12:24:02 PM

Latest Report: Jul 24, 2014 at 11:50 AM


Visibility: 10 mi

Pressure: 30.07 "Hg

Humidity: 65%

Dew point: 61 °F

Location of CardiffLocation

Historic Weather in Cardiff — Graph

°F

Cardiff temperature yesterday

Maximum temperature yesterday: 81 °F (at 3:20 PM)
Minimum temperature yesterday: 63 °F (at 3:50 AM)
Average temperature yesterday: 72 °F

Past Weeks' High & Low Weather Summary

 TemperatureHumidityPressure
High81 °F (Jul 23, 3:20 PM)100% (Jul 12, 12:20 AM)30.24 "Hg (Jul 12, 12:20 AM)
Low50 °F (Jul 10, 4:20 AM)48% (Jul 23, 3:20 PM)29.74 "Hg (Jul 19, 7:20 AM)
Average65 °F80%30.02 "Hg
* Reported Jul 9 1:50 PM — Jul 24 11:20 AM, Cardiff, Weather by CustomWeather, © 2014

Note: Actual official high and low records may vary slightly from our data, if they occured in-between our weather recording intervals... More about our weather records

Advertising

Cardiff weather history for previous 24 hours

 ConditionsComfort  
Time TempWeatherWind HumidityBarometerVisibility
11:20 AM
Jul 24
72 °FSunny.15 mph69%30.07 "Hg10 mi
10:50 AM72 °FSunny.14 mph69%30.07 "Hg10 mi
10:20 AM72 °FMild.15 mph65%30.07 "HgN/A
9:50 AM70 °FPassing clouds.16 mph64%30.07 "HgN/A
9:20 AM70 °FPassing clouds.16 mph64%30.07 "HgN/A
8:50 AM68 °FPassing clouds.15 mph64%30.07 "HgN/A
8:20 AM68 °FPassing clouds.14 mph64%30.07 "HgN/A
7:50 AM66 °FPassing clouds.16 mph68%30.04 "HgN/A
7:20 AM64 °FPassing clouds.15 mph73%30.04 "HgN/A
6:50 AM64 °FSunny.15 mph73%30.04 "Hg10 mi
6:20 AM64 °FClear.13 mph73%30.04 "Hg10 mi
5:50 AM64 °FClear.12 mph73%30.04 "Hg10 mi
5:20 AM64 °FPassing clouds.12 mph78%30.04 "HgN/A
4:50 AM66 °FClear.13 mph73%30.04 "Hg10 mi
4:20 AM66 °FClear.13 mph73%30.04 "Hg10 mi
3:50 AM66 °FMild.13 mph78%30.04 "HgN/A
3:20 AM68 °FClear.13 mph73%30.04 "Hg10 mi
2:50 AM68 °FClear.14 mph73%30.04 "Hg10 mi
2:20 AM70 °FClear.15 mph69%30.07 "Hg10 mi
1:50 AM70 °FClear.14 mph69%30.07 "Hg10 mi
1:20 AM72 °FMild.15 mph65%30.07 "HgN/A
12:50 AM72 °FMild.15 mph69%30.07 "HgN/A
12:20 AM72 °FMild.15 mph69%30.07 "HgN/A
11:50 PM
Jul 23
72 °FClear.12 mph73%30.07 "Hg10 mi
11:20 PM73 °FClear.12 mph69%30.07 "Hg10 mi
10:50 PM73 °FPassing clouds.10 mph69%30.07 "HgN/A
10:20 PM73 °FPassing clouds.9 mph69%30.07 "HgN/A
9:50 PM72 °FPartly sunny.7 mph73%30.04 "HgN/A
9:20 PM73 °FPassing clouds.7 mph69%30.04 "HgN/A
8:50 PM73 °FPassing clouds.6 mph69%30.04 "HgN/A
8:20 PM77 °FPassing clouds.7 mph57%30.04 "HgN/A
7:50 PM77 °FPassing clouds.7 mph57%30.04 "HgN/A
7:20 PM77 °FPassing clouds.10 mph57%30.04 "HgN/A
6:50 PM79 °FWarm.12 mph54%30.04 "HgN/A
6:20 PM81 °FPassing clouds.13 mph51%30.04 "HgN/A
5:50 PM81 °FPassing clouds.13 mph51%30.04 "HgN/A
5:20 PM81 °FPassing clouds.13 mph51%30.07 "HgN/A
4:50 PM81 °FPassing clouds.13 mph51%30.07 "HgN/A
4:20 PM81 °FPassing clouds.14 mph51%30.07 "HgN/A
3:50 PM81 °FPassing clouds.13 mph48%30.07 "HgN/A
3:20 PM81 °FPassing clouds.14 mph48%30.07 "HgN/A
2:50 PM79 °FPassing clouds.13 mph51%30.09 "HgN/A
2:20 PM79 °FPassing clouds.15 mph51%30.09 "HgN/A
Weather by CustomWeather, © 2014

See weather overviewHow to use our weather pages